User: anonymous   Login
Location: ActonStarParty
(42.4766°N, 71.4538°W)
Time: 00:23:25
(UTC-04:00)
Language:

ITAMSAT 1 - Orbit

View from above orbital plane
View from above orbital plane
View from above satellite
View from above satellite

Ground track
Ground track

The orbit data is extracted from the following two-line orbital elements,

1 22826U 93061D   14297.82509911  .00000332  00000-0  14576-3 0  5616
2 22826 098.6714 243.4972 0007836 269.1722 090.8562 14.30071709 99449
Epoch (UTC): 24 October 2014 19:48:08
Eccentricity: 0.0007836
inclination: 98.6714°
perigee height: 786 km
apogee height: 797 km
right ascension of ascending node: 243.4972°
argument of perigee: 269.1722°
revolutions per day: 14.30071709
mean anomaly at epoch: 90.8562°
orbit number at epoch: 9944

The dashed part of the orbit path shows where the satellite is in the earth's shadow,  

DLR